Pittsburg, KS

9:44 AM CDT on March 26, 2017 (GMT -0500)
Atkinson Municipal

Weather History for KPTS - December, 2012

Change the Weather History Date:

Thursday, December 13, 2012

  Actual Average (KJLN) Record (KJLN)
Temperature  
Mean Temperature 48 °F -  
Max Temperature 58 °F 46 °F 76 °F (1948)
Min Temperature 37 °F 27 °F 4 °F (1961)
Degree Days  
Heating Degree Days 18    
Moisture  
Dew Point 21 °F    
Average Humidity 40    
Maximum Humidity 54    
Minimum Humidity 28    
Precipitation  
Precipitation 0.00 in - - ()
Sea Level Pressure  
Sea Level Pressure 30.15 in    
Wind  
Wind Speed 12 mph (SSW)    
Max Wind Speed 23 mph    
Max Gust Speed 36 mph    
Visibility 10 miles    
Events      
Averages and records for this station are not official NWS values.
T = Trace of Precipitation, MM = Missing Value Source: NWS Daily Summary

Daily Weather History Graph

Daily Weather History Graph

Search for Another Location

Airport or City:

Trip Planner

Search our weather history database for the weather conditions in past years. The results will help you decide how hot, cold, wet, or windy it might be!

Date:

Astronomy

Dec. 13, 2012 Rise Set
Actual Time 7:25 AM CST 5:01 PM CST
Civil Twilight 6:55 AM CST 5:30 PM CST
Nautical Twilight 6:23 AM CST 6:03 PM CST
Astronomical Twilight 5:51 AM CST 6:35 PM CST
Moon 7:34 AM CST (12/13) 5:44 PM CST (12/13)
Length of Visible Light 10h 34m
Length of Day
9h 36m
New Moon, 0% of the Moon is Illuminated
Dec 13
New Moon
Dec 19
First Quarter
Dec 28
Full
Jan 4
Last Quarter
Jan 11
New

Hourly Weather History & Observations

Time (CST) Temp. Windchill Dew Point Humidity Pressure Visibility Wind Dir Wind Speed Gust Speed Precip Events Conditions
12:15 AM 37.9 °F 31.5 °F 17.8 °F 44% 30.21 in 10.0 mi South 9.2 mph - N/A   Clear
12:35 AM 37.9 °F 31.5 °F 17.8 °F 44% 30.21 in 10.0 mi South 9.2 mph - N/A   Clear
12:55 AM 37.9 °F 30.9 °F 17.6 °F 44% 30.20 in 10.0 mi South 10.4 mph - N/A   Clear
1:15 AM 37.9 °F 30.9 °F 17.4 °F 43% 30.19 in 10.0 mi South 10.4 mph - N/A   Clear
1:35 AM 37.9 °F 30.5 °F 17.2 °F 43% 30.19 in 10.0 mi South 11.5 mph - N/A   Clear
1:55 AM 37.9 °F 29.6 °F 16.7 °F 42% 30.19 in 10.0 mi South 13.8 mph - N/A   Clear
2:15 AM 37.9 °F 30.5 °F 16.5 °F 42% 30.19 in 10.0 mi South 11.5 mph - N/A   Clear
2:35 AM 38.1 °F 30.2 °F 16.5 °F 42% 30.19 in 10.0 mi South 12.7 mph - N/A   Clear
2:55 AM 38.5 °F 30.7 °F 16.5 °F 41% 30.19 in 10.0 mi South 12.7 mph - N/A   Clear
3:15 AM 39.0 °F 31.0 °F 16.5 °F 40% 30.19 in 10.0 mi South 13.8 mph 17.3 mph N/A   Clear
3:35 AM 39.4 °F 32.3 °F 16.7 °F 40% 30.19 in 10.0 mi South 11.5 mph - N/A   Clear
3:55 AM 38.1 °F 30.2 °F 16.0 °F 41% 30.18 in 10.0 mi South 12.7 mph - N/A   Clear
4:15 AM 37.9 °F 30.9 °F 16.2 °F 41% 30.17 in 10.0 mi South 10.4 mph 18.4 mph N/A   Clear
4:35 AM 37.9 °F 30.5 °F 16.3 °F 42% 30.17 in 10.0 mi South 11.5 mph - N/A   Clear
4:55 AM 37.9 °F 30.9 °F 16.5 °F 42% 30.16 in 10.0 mi South 10.4 mph 17.3 mph N/A   Clear
5:15 AM 37.9 °F 30.5 °F 16.3 °F 42% 30.16 in 10.0 mi South 11.5 mph - N/A   Clear
5:35 AM 38.1 °F 30.7 °F 16.5 °F 42% 30.16 in 10.0 mi South 11.5 mph - N/A   Clear
5:55 AM 37.9 °F 30.0 °F 16.5 °F 42% 30.16 in 10.0 mi South 12.7 mph - N/A   Clear
6:15 AM 37.9 °F 30.0 °F 16.3 °F 42% 30.16 in 10.0 mi South 12.7 mph - N/A   Clear
6:35 AM 38.1 °F 30.7 °F 16.5 °F 42% 30.16 in 10.0 mi South 11.5 mph - N/A   Clear
6:55 AM 37.9 °F 30.9 °F 16.5 °F 42% 30.16 in 10.0 mi South 10.4 mph - N/A   Clear
7:15 AM 37.9 °F 30.9 °F 17.1 °F 43% 30.16 in 10.0 mi South 10.4 mph - N/A   Clear
7:35 AM 37.9 °F 31.5 °F 17.2 °F 43% 30.17 in 10.0 mi SSW 9.2 mph - N/A   Clear
7:55 AM 38.5 °F 31.1 °F 17.6 °F 43% 30.17 in 10.0 mi SSW 11.5 mph - N/A   Clear
8:15 AM 40.3 °F 33.9 °F 18.9 °F 42% 30.17 in 10.0 mi SSW 10.4 mph 16.1 mph N/A   Clear
8:35 AM 40.6 °F 33.8 °F 18.5 °F 41% 30.18 in 10.0 mi SSW 11.5 mph - N/A   Clear
8:55 AM 42.1 °F 34.9 °F 18.5 °F 39% 30.18 in 10.0 mi SSW 13.8 mph - N/A   Clear
9:15 AM 43.2 °F 35.6 °F 18.7 °F 38% 30.18 in 10.0 mi SSW 16.1 mph 24.2 mph N/A   Clear
9:35 AM 44.1 °F 36.5 °F 19.0 °F 37% 30.18 in 10.0 mi SSW 17.3 mph 25.3 mph N/A   Clear
9:55 AM 46.4 °F 39.0 °F 20.1 °F 35% 30.19 in 10.0 mi SSW 19.6 mph 25.3 mph N/A   Clear
10:15 AM 49.6 °F - 22.3 °F 34% 30.19 in 10.0 mi SSW 20.7 mph 34.5 mph N/A   Clear
10:35 AM 50.9 °F - 22.5 °F 33% 30.19 in 10.0 mi SSW 19.6 mph 28.8 mph N/A   Clear
10:55 AM 51.1 °F - 22.5 °F 33% 30.18 in 10.0 mi SW 18.4 mph 27.6 mph N/A   Clear
11:15 AM 52.5 °F - 22.6 °F 31% 30.18 in 10.0 mi SW 19.6 mph 35.7 mph N/A   Clear
11:35 AM 54.3 °F - 23.2 °F 30% 30.18 in 10.0 mi SW 20.7 mph 32.2 mph N/A   Clear
11:55 AM 55.8 °F - 24.3 °F 30% 30.17 in 10.0 mi SW 23.0 mph 28.8 mph N/A   Clear
12:15 PM 55.8 °F - 23.9 °F 29% 30.16 in 10.0 mi SSW 23.0 mph 28.8 mph N/A   Clear
12:35 PM 55.8 °F - 23.7 °F 29% 30.15 in 10.0 mi SW 21.9 mph 27.6 mph N/A   Clear
12:55 PM 56.3 °F - 24.1 °F 29% 30.14 in 10.0 mi SW 18.4 mph 27.6 mph N/A   Clear
1:15 PM 57.4 °F - 24.6 °F 28% 30.14 in 10.0 mi SSW 20.7 mph 28.8 mph N/A   Clear
1:35 PM 57.9 °F - 25.0 °F 28% 30.13 in 10.0 mi SSW 21.9 mph 28.8 mph N/A   Clear
1:55 PM 58.3 °F - 25.2 °F 28% 30.12 in 10.0 mi SSW 18.4 mph 29.9 mph N/A   Clear
2:15 PM 58.3 °F - 25.0 °F 28% 30.12 in 10.0 mi SSW 23.0 mph 29.9 mph N/A   Clear
2:35 PM 58.3 °F - 25.5 °F 28% 30.11 in 10.0 mi SSW 21.9 mph 27.6 mph N/A   Clear
2:55 PM 58.3 °F - 25.7 °F 29% 30.10 in 10.0 mi SSW 18.4 mph 24.2 mph N/A   Clear
3:15 PM 58.3 °F - 25.9 °F 29% 30.10 in 10.0 mi SSW 12.7 mph 16.1 mph N/A   Clear
3:35 PM 58.3 °F - 26.2 °F 29% 30.10 in 10.0 mi SSW 13.8 mph 21.9 mph N/A   Clear
3:55 PM 58.3 °F - 25.9 °F 29% 30.09 in 10.0 mi SSW 17.3 mph 23.0 mph N/A   Clear
4:35 PM 55.9 °F - 25.2 °F 31% 30.09 in 10.0 mi SSW 13.8 mph - N/A   Clear
6:15 PM 50.9 °F - 27.9 °F 41% 30.09 in 10.0 mi SSW 9.2 mph - N/A   Clear
7:15 PM 46.9 °F - 26.4 °F 45% 30.11 in 10.0 mi SSW 6.9 mph - N/A   Clear
7:35 PM 45.1 °F 41.4 °F 25.5 °F 46% 30.11 in 10.0 mi South 6.9 mph - N/A   Clear
7:55 PM 46.0 °F 42.5 °F 25.9 °F 45% 30.11 in 10.0 mi SSW 6.9 mph - N/A   Clear
8:15 PM 45.0 °F 42.6 °F 25.5 °F 47% 30.11 in 10.0 mi SSW 4.6 mph - N/A   Clear
8:35 PM 44.2 °F 41.0 °F 25.3 °F 47% 30.11 in 10.0 mi SSW 5.8 mph - N/A   Clear
8:55 PM 43.3 °F 39.2 °F 25.2 °F 49% 30.11 in 10.0 mi South 6.9 mph - N/A   Clear
9:15 PM 42.8 °F 38.0 °F 25.3 °F 50% 30.11 in 10.0 mi SSW 8.1 mph - N/A   Clear
9:35 PM 41.7 °F 37.3 °F 25.9 °F 53% 30.12 in 10.0 mi SSW 6.9 mph - N/A   Clear
9:55 PM 41.7 °F 38.0 °F 25.7 °F 53% 30.12 in 10.0 mi South 5.8 mph - N/A   Clear
10:15 PM 41.9 °F 38.2 °F 25.2 °F 52% 30.13 in 10.0 mi SSW 5.8 mph - N/A   Clear
10:35 PM 41.4 °F 38.4 °F 25.3 °F 53% 30.12 in 10.0 mi South 4.6 mph - N/A   Clear
10:55 PM 41.4 °F 37.6 °F 24.8 °F 52% 30.12 in 10.0 mi SSW 5.8 mph - N/A   Clear
11:15 PM 40.6 °F 36.0 °F 24.8 °F 53% 30.13 in 10.0 mi South 6.9 mph - N/A   Clear
11:35 PM 40.5 °F 37.3 °F 24.8 °F 54% 30.13 in 10.0 mi SSW 4.6 mph - N/A   Clear
11:55 PM 40.5 °F 36.5 °F 25.2 °F 54% 30.13 in 10.0 mi SSW 5.8 mph - N/A   Clear